Temperature
20 19 19 19 19 19 18 18 18 18 18 18 18 18 18 18 17 17 17 17 17 17 17 17 17 17 17 17 17 17 17 17 17 17 17 17 17 17 17 17 17 17 17
20 19 19 19 19 18 18 18 18 18 18 18 18 17 17 17 17 17 17 17 17 17 17 17 17 17 16 16 16 16 16 16 16 16 17 17 16 16 16 16 16 16 16
19 19 19 18 18 18 18 18 18 18 18 17 17 17 17 17 17 17 17 17 17 17 17 17 16 16 16 16 16 16 16 16 16 16 16 16 16 16 16 16 16 16 16
19 19 18 18 18 18 18 17 17 17 17 17 17 17 17 17 17 17 17 16 16 16 16 16 16 16 16 16 16 16 16 16 16 16 16 16 16 16 15 15 15 15 15
19 18 18 18 18 17 17 17 17 17 17 17 17 17 16 16 16 16 16 16 16 16 16 16 16 16 16 15 15 15 15 15 15 15 15 15 15 15 15 15 15 15 15
18 18 18 18 17 17 17 17 17 16 16 16 16 16 16 16 16 16 16 15 15 15 15 15 15 15 15 15 15 15 15 15 15 15 15 15 15 15 14 14 14 14 14
18 18 18 17 17 17 17 16 16 16 16 16 16 16 16 16 15 15 15 15 15 15 15 15 15 15 15 15 15 15 15 15 15 14 14 14 14 14 14 14 14 14 14
17 17 17 17 17 16 16 16 16 16 16 16 16 15 15 15 15 15 15 15 15 15 15 15 15 15 14 14 15 15 15 15 15 14 14 14 14 14 14 14 14 14 14
17 17 17 16 16 16 16 16 16 16 16 15 15 15 15 15 15 15 15 15 15 15 15 14 14 14 14 14 14 14 14 14 14 14 14 14 13 13 13 13 13 13 13
17 16 16 16 16 16 16 16 16 15 15 15 15 15 15 15 15 15 15 14 14 14 14 14 14 14 14 14 14 14 14 14 14 13 13 13 13 13 13 13 13 13 13
16 16 16 16 16 16 16 15 15 15 15 15 15 15 15 15 15 15 14 14 14 14 14 14 14 14 14 14 13 13 13 13 13 13 13 13 13 13 13 12 12 12 12
16 16 16 16 15 15 15 15 15 15 15 14 14 14 14 14 14 14 14 14 14 14 14 14 14 13 13 13 13 13 13 13 13 13 12 12 13 13 12 12 12 12 12
16 15 15 15 15 15 15 15 15 14 14 14 14 14 14 14 14 14 14 14 14 14 14 13 13 13 13 13 13 13 12 12 12 12 12 12 12 12 12 12 12 12 12
15 15 15 15 15 15 14 14 14 14 14 14 13 13 13 13 13 13 13 13 13 13 13 13 13 13 13 12 12 12 12 12 12 12 11 11 11 11 11 11 11 11 11
15 15 15 14 14 14 14 14 14 14 14 14 14 13 13 13 13 13 13 13 13 13 12 12 12 12 12 12 12 12 11 11 11 11 11 11 11 11 11 11 11 11 11
14 14 14 14 14 14 14 14 14 14 13 13 13 13 13 13 13 13 13 12 12 12 12 12 12 11 11 11 11 11 11 11 11 10 10 10 10 10 10 11 11 11 11
14 14 14 14 14 14 14 13 13 13 13 13 13 13 13 12 12 12 12 12 12 12 11 11 11 11 11 11 11 10 10 10 10 10 10 10 10 10 10 10 10 10 10
14 14 14 14 14 13 13 13 13 13 13 13 13 12 12 12 12 12 12 12 11 11 11 11 11 11 11 10 10 10 10 10 10 10 10 10 10 10 10 10 10 10 10
14 14 13 13 13 13 13 13 13 13 12 12 12 12 12 12 12 12 11 11 11 11 11 11 10 10 10 10 10 10 10 10 10 9 9 9 9 9 9 9 9 9 9
13 13 13 13 13 13 13 13 13 12 12 12 12 12 12 11 11 11 11 11 11 10 10 10 10 10 10 10 10 10 10 9 9 9 9 9 9 9 9 9 9 9 9
13 13 13 13 13 13 12 12 12 12 12 12 12 11 11 11 11 11 10 10 10 10 10 10 10 10 10 10 9 9 9 9 9 9 9 9 9 9 8 8 8 8 8
13 13 13 13 12 12 12 12 12 12 12 11 11 11 11 11 11 11 10 10 10 10 10 10 9 9 9 9 9 9 9 9 9 8 8 8 8 8 8 8 8 8 8
12 12 12 12 12 12 12 12 12 11 11 11 11 11 11 11 10 10 10 10 10 10 9 9 9 9 9 9 9 9 8 8 8 8 8 8 8 8 8 8 8 7 7
12 12 12 12 12 12 11 11 11 11 11 11 11 11 11 10 10 10 10 9 9 9 9 9 9 9 9 8 8 8 8 8 8 8 8 8 7 7 7 7 7 7 7
11 11 11 11 11 11 11 11 11 11 11 11 11 10 10 10 10 10 9 9 9 9 9 8 8 8 8 8 8 8 8 8 8 7 7 7 7 7 7 7 7 7 7
11 11 11 11 11 11 11 11 11 10 10 10 10 10 10 10 9 9 9 9 9 8 8 8 8 8 8 8 8 7 7 7 7 7 7 7 7 7 7 6 6 6 6
Wind_Speed
6 5 5 4 3 3 3 3 3 3 3 3 3 3 3 3 3 3 3 3 3 3 3 3 4 3 3 3 2 2 3 4 5 5 3 3 3 4 3 4 6 6 6
6 5 5 4 3 4 4 4 4 3 3 4 3 3 3 3 3 4 4 4 4 4 4 3 4 3 3 3 3 3 3 3 4 5 4 2 3 4 3 4 4 5 6
6 5 4 3 3 3 4 3 3 3 3 3 3 4 4 4 4 4 4 4 4 5 4 4 5 4 4 4 4 3 3 3 2 3 4 2 2 2 2 3 3 3 4
5 5 4 4 4 4 3 3 3 3 3 3 4 4 4 3 4 4 4 4 4 4 4 5 5 5 6 5 4 4 3 2 2 2 3 3 2 2 1 2 3 3 4
5 5 5 4 4 3 3 3 3 3 4 3 3 3 4 4 4 4 4 4 4 4 5 5 5 6 7 5 4 4 3 3 2 3 2 2 2 2 2 2 3 3 4
4 4 4 4 3 3 3 3 2 3 3 3 3 3 4 5 5 4 4 4 4 5 5 5 4 5 6 6 5 6 5 5 4 4 3 3 4 3 3 3 2 2 3
4 3 3 2 3 3 3 2 2 2 2 2 3 3 4 5 5 4 4 4 4 5 4 4 4 4 4 3 5 5 6 7 7 6 5 5 4 5 4 4 3 3 4
3 2 2 2 2 2 2 2 3 2 2 2 3 3 3 4 4 4 4 3 4 4 4 5 5 4 4 4 3 4 4 4 5 5 6 6 6 5 5 5 5 4 3
2 2 3 3 3 3 3 3 3 2 2 2 2 2 2 3 4 3 3 2 3 4 4 4 4 4 5 4 3 3 4 4 4 4 5 6 6 5 4 2 1 1 3
3 3 3 3 3 4 4 3 2 2 3 2 2 2 2 3 3 3 2 1 2 3 3 3 4 4 5 4 4 4 4 4 3 2 2 3 3 4 4 4 4 3 2
3 3 3 3 3 3 3 3 2 2 1 1 2 2 2 2 2 2 2 1 2 3 3 3 4 5 4 4 4 4 6 4 2 2 2 2 2 2 2 3 3 4 3
2 2 2 2 3 3 3 2 2 2 2 1 1 2 2 2 2 3 3 3 2 2 3 3 3 5 4 4 4 4 4 2 1 1 2 2 3 3 3 3 4 5 5
1 1 1 1 1 2 3 3 2 2 2 1 1 2 3 3 3 4 3 3 3 2 3 4 4 4 2 2 3 3 2 1 1 2 3 4 3 3 3 2 3 3 3
2 2 1 1 1 1 2 2 2 2 3 2 2 2 2 2 2 3 3 2 3 2 2 3 3 2 1 1 2 2 1 2 2 3 4 3 2 2 2 2 2 2 2
2 2 2 2 2 2 2 2 3 4 5 5 4 3 2 3 4 4 2 2 2 2 1 1 1 2 2 2 2 2 1 1 1 2 2 2 2 2 3 2 2 2 2
2 2 2 2 2 2 2 1 2 3 4 6 6 5 4 4 4 4 4 4 4 2 1 0 1 1 1 2 2 2 2 1 1 1 1 2 2 2 2 2 2 2 2
3 3 2 2 2 2 2 3 2 3 3 4 5 5 5 5 4 3 3 3 2 1 1 1 1 2 2 2 2 2 2 2 2 1 2 2 2 2 2 2 2 1 2
3 3 3 3 3 3 4 4 4 3 2 3 4 5 5 5 4 3 2 2 1 1 1 1 2 2 2 2 2 2 2 2 1 1 1 1 1 1 1 2 2 2 2
3 3 3 3 3 3 3 3 3 3 3 2 2 2 4 3 3 2 2 1 1 2 2 2 2 2 2 2 2 2 1 1 1 1 1 1 1 1 1 1 1 2 1
3 5 4 3 2 2 2 3 3 3 3 3 3 3 1 1 0 1 1 2 2 2 2 2 2 2 1 1 1 1 1 1 1 1 1 1 1 1 1 1 1 1 1
2 2 3 2 2 3 3 3 3 3 3 3 3 3 4 3 3 3 2 3 3 3 2 2 1 1 1 1 1 0 0 1 0 0 1 1 1 1 1 1 1 0 0
2 2 2 2 2 2 2 2 3 3 3 4 3 2 4 2 2 2 2 3 3 2 2 2 1 1 1 1 1 1 1 0 0 1 1 0 0 0 0 0 1 0 0
2 2 2 2 2 2 2 2 2 3 3 3 3 3 3 3 3 2 2 2 1 1 1 1 1 0 0 1 1 2 2 2 2 1 1 0 0 0 0 0 0 0 0
2 2 2 1 1 2 2 2 2 2 3 3 2 2 3 3 2 3 2 2 1 1 1 1 1 1 1 1 0 0 0 1 1 1 2 2 1 1 1 0 0 0 0
2 2 2 2 1 1 2 1 2 2 2 2 2 2 2 2 2 2 2 1 2 2 1 1 2 2 1 1 1 1 2 2 2 1 0 1 1 2 1 1 1 1 0
1 1 1 1 1 1 1 1 1 2 2 2 2 2 2 2 2 2 2 2 2 1 1 1 2 2 2 2 2 2 3 3 3 3 1 0 1 1 1 1 0 0 0
Wind_Direction
187 188 189 196 199 195 204 222 229 235 235 241 241 230 227 229 224 218 228 228 231 248 250 239 250 252 253 252 241 229 225 213 242 269 259 248 231 241 246 243 254 251 251
188 186 195 196 195 200 219 232 232 232 231 232 236 234 237 238 230 220 229 235 231 242 247 243 251 256 260 255 247 245 242 224 223 261 278 265 248 238 236 246 256 260 252
183 182 194 197 198 209 226 234 231 231 238 237 229 230 238 241 233 226 225 231 235 237 238 240 248 242 251 256 247 250 251 248 223 236 264 264 262 249 257 270 270 270 261
173 176 189 206 205 209 221 227 227 227 233 239 232 230 236 247 240 229 224 230 242 248 244 241 242 234 240 246 247 243 243 246 238 240 259 266 269 267 237 269 288 280 275
171 174 189 208 210 202 207 218 220 225 235 240 245 252 247 247 243 229 224 231 237 254 257 252 248 247 246 244 246 236 230 234 231 233 251 272 276 279 259 254 268 284 280
166 172 185 195 193 195 205 207 215 227 230 229 237 245 256 263 263 245 231 232 233 239 251 263 262 256 254 251 248 239 220 219 221 220 241 242 252 253 257 256 258 276 277
160 165 170 181 194 207 202 190 208 227 228 235 240 243 252 261 263 256 249 243 243 239 237 249 268 269 264 248 252 255 247 237 226 216 221 236 237 229 233 249 243 240 247
154 169 183 184 200 210 197 205 217 214 223 237 248 252 255 261 256 263 267 257 253 248 239 234 238 253 253 239 230 239 249 253 241 229 222 233 234 224 218 227 236 247 264
178 206 208 198 201 210 211 217 218 213 230 241 254 246 248 270 263 265 276 260 257 263 261 253 241 239 250 227 211 226 256 274 267 244 240 244 242 229 205 197 238 245 273
209 225 218 204 205 216 216 218 219 211 230 245 265 258 247 268 273 265 261 226 248 273 282 273 257 244 241 213 209 213 237 257 267 288 284 282 261 245 225 205 208 218 237
205 217 217 213 215 213 206 209 205 208 227 252 263 280 272 275 288 278 267 234 248 264 270 271 266 261 253 236 222 217 230 238 237 235 253 273 282 273 262 231 210 204 214
199 212 229 227 227 210 194 199 189 183 193 238 249 293 308 300 299 295 287 276 269 245 262 270 268 264 256 242 230 240 246 236 213 221 238 254 259 263 263 249 234 227 224
177 221 246 234 227 188 177 185 181 170 180 212 226 262 296 310 317 313 301 293 293 275 279 289 291 275 253 254 253 257 249 219 211 230 243 252 252 254 261 267 269 253 256
191 224 240 215 228 223 207 197 188 193 190 192 204 227 280 304 317 326 324 317 316 314 315 315 314 310 326 318 312 297 266 230 224 239 248 262 275 273 257 244 250 252 262
197 213 221 225 216 215 228 224 213 223 208 198 204 201 219 267 279 280 271 286 292 279 289 346 7 11 5 349 335 315 307 317 283 269 258 271 278 271 264 245 238 232 221
195 215 217 226 217 202 203 257 277 244 228 208 208 207 225 239 271 289 292 291 289 257 150 192 268 279 272 283 287 300 321 320 296 277 257 253 260 266 267 256 240 225 226
208 224 221 225 222 209 205 206 245 287 258 227 222 226 234 249 267 292 302 305 298 139 151 239 253 257 261 266 273 277 285 282 277 269 261 255 254 257 254 251 244 234 239
217 221 214 220 226 222 220 218 210 213 239 264 254 240 241 248 259 280 319 38 18 28 247 253 257 262 260 259 262 267 273 284 290 287 285 279 256 242 244 262 256 230 227
226 226 222 222 224 224 226 217 209 205 210 230 258 273 254 249 254 254 153 148 223 264 267 274 267 261 263 260 261 260 263 273 276 269 277 270 260 243 255 260 255 241 218
243 240 230 221 227 229 221 211 211 213 215 218 228 241 226 149 173 252 198 202 211 238 254 263 270 274 265 260 269 269 282 300 310 306 291 286 283 260 260 261 226 201 233
248 258 251 233 229 224 217 213 212 210 213 221 231 225 186 183 207 213 208 211 217 226 233 242 252 263 272 270 251 252 342 338 318 284 293 294 307 312 284 274 281 251 239
246 248 241 230 229 224 222 217 210 209 210 208 219 214 186 182 196 200 210 222 225 222 216 210 215 233 227 211 198 188 176 187 315 286 269 283 287 281 267 287 313 335 357
242 250 249 245 233 229 222 211 205 208 211 203 200 195 187 195 202 204 218 230 218 212 204 166 163 191 254 212 178 172 181 212 229 218 200 214 275 251 216 349 342 8 12
232 239 234 235 237 223 217 217 213 205 197 194 195 195 192 197 200 203 207 202 181 167 157 146 142 143 115 58 90 109 213 252 248 228 196 178 188 204 174 131 114 131 210
236 240 241 235 237 234 226 213 200 198 195 189 186 188 183 181 186 181 180 170 146 137 127 121 124 125 127 106 94 62 43 39 24 18 25 186 193 193 174 168 188 192 152
248 253 244 225 207 202 191 208 215 202 197 199 189 177 174 173 171 165 158 143 136 120 92 90 108 102 82 60 61 72 72 57 36 25 35 5 165 168 160 160 184 151 152
Height
1515 1516 1517 1517 1518 1519 1519 1519 1519 1519 1519 1519 1519 1519 1519 1520 1520 1520 1519 1520 1520 1520 1520 1519 1519 1519 1519 1518 1518 1517 1517 1517 1516 1515 1515 1515 1515 1515 1515 1515 1515 1515 1514
1513 1514 1515 1515 1516 1516 1516 1517 1517 1517 1517 1517 1516 1516 1516 1516 1517 1516 1516 1516 1516 1516 1516 1515 1515 1515 1515 1515 1514 1514 1513 1513 1513 1511 1511 1511 1511 1511 1510 1510 1510 1510 1509
1512 1512 1513 1514 1514 1514 1514 1514 1514 1514 1514 1514 1513 1513 1513 1513 1513 1513 1513 1513 1512 1512 1512 1511 1511 1511 1510 1510 1510 1510 1509 1509 1509 1508 1507 1507 1507 1507 1506 1506 1506 1505 1505
1510 1510 1511 1511 1512 1512 1512 1512 1512 1511 1511 1511 1510 1510 1510 1510 1510 1509 1509 1509 1508 1508 1508 1507 1507 1507 1506 1506 1505 1505 1505 1505 1505 1504 1503 1503 1503 1502 1502 1501 1501 1500 1500
1507 1508 1508 1509 1509 1510 1510 1509 1509 1508 1508 1508 1507 1507 1507 1506 1505 1505 1505 1505 1504 1504 1504 1503 1502 1502 1502 1502 1501 1501 1500 1500 1500 1499 1499 1498 1498 1498 1497 1497 1496 1495 1495
1505 1505 1506 1507 1507 1507 1507 1507 1507 1506 1506 1505 1504 1503 1503 1502 1502 1501 1501 1501 1500 1499 1499 1499 1498 1498 1498 1498 1497 1497 1496 1496 1495 1495 1494 1494 1493 1494 1493 1493 1492 1491 1490
1502 1503 1503 1504 1504 1504 1504 1504 1504 1504 1503 1502 1502 1500 1499 1499 1498 1497 1497 1497 1496 1495 1495 1494 1494 1494 1493 1493 1492 1492 1492 1492 1492 1491 1490 1490 1489 1489 1489 1488 1488 1487 1486
1500 1500 1501 1501 1501 1502 1502 1502 1501 1501 1500 1500 1499 1498 1497 1496 1495 1494 1493 1493 1492 1491 1491 1490 1489 1489 1489 1489 1488 1487 1487 1487 1487 1487 1486 1485 1485 1485 1485 1485 1484 1483 1483
1498 1498 1498 1499 1499 1499 1499 1499 1498 1498 1497 1497 1496 1495 1493 1493 1492 1491 1490 1489 1488 1487 1487 1486 1486 1485 1485 1484 1484 1483 1483 1482 1482 1482 1482 1481 1481 1481 1481 1481 1480 1479 1478
1495 1496 1496 1496 1496 1496 1496 1496 1496 1496 1495 1494 1493 1492 1491 1490 1489 1488 1487 1486 1484 1483 1483 1482 1482 1481 1481 1480 1479 1478 1478 1477 1478 1477 1477 1477 1477 1477 1476 1476 1476 1475 1474
1493 1494 1494 1494 1493 1493 1494 1493 1493 1493 1492 1491 1490 1489 1488 1487 1486 1485 1484 1483 1481 1480 1479 1478 1478 1477 1477 1476 1475 1475 1474 1474 1473 1473 1472 1472 1472 1472 1472 1472 1472 1471 1471
1491 1491 1491 1490 1490 1491 1490 1490 1490 1490 1489 1488 1487 1486 1485 1485 1484 1482 1481 1480 1479 1478 1476 1475 1474 1473 1472 1472 1471 1470 1470 1470 1469 1468 1468 1467 1468 1468 1468 1468 1467 1467 1467
1488 1488 1488 1487 1487 1487 1487 1486 1486 1486 1486 1485 1484 1483 1482 1482 1481 1479 1478 1477 1476 1475 1474 1472 1471 1470 1469 1468 1467 1466 1466 1465 1464 1464 1463 1463 1463 1464 1464 1464 1463 1464 1463
1486 1485 1485 1485 1484 1484 1484 1483 1483 1482 1482 1481 1480 1480 1479 1478 1477 1476 1475 1474 1473 1472 1471 1469 1469 1467 1466 1465 1463 1462 1462 1461 1460 1460 1460 1460 1460 1459 1459 1459 1459 1459 1459
1483 1482 1482 1482 1481 1481 1480 1480 1479 1479 1479 1478 1477 1477 1476 1475 1474 1474 1472 1471 1470 1469 1468 1467 1465 1464 1462 1461 1460 1459 1458 1458 1457 1456 1456 1456 1455 1455 1455 1455 1456 1455 1455
1480 1480 1479 1479 1478 1478 1477 1477 1477 1477 1476 1475 1475 1474 1473 1473 1472 1471 1470 1469 1468 1467 1465 1463 1462 1461 1460 1459 1458 1457 1455 1454 1454 1453 1453 1452 1452 1452 1451 1451 1452 1452 1452
1478 1477 1476 1475 1475 1474 1474 1474 1473 1474 1473 1473 1472 1471 1471 1470 1469 1468 1467 1466 1466 1464 1462 1461 1460 1459 1458 1457 1456 1454 1453 1452 1452 1451 1450 1449 1449 1448 1448 1448 1448 1448 1448
1475 1474 1473 1472 1472 1471 1471 1470 1470 1470 1469 1469 1469 1468 1468 1467 1466 1465 1465 1464 1462 1461 1460 1459 1457 1456 1455 1454 1453 1452 1451 1450 1449 1448 1447 1447 1446 1445 1445 1444 1444 1444 1444
1472 1471 1470 1469 1468 1468 1468 1467 1467 1466 1466 1465 1465 1465 1464 1463 1463 1462 1461 1460 1459 1458 1457 1456 1455 1454 1453 1452 1451 1450 1449 1448 1447 1446 1445 1444 1444 1443 1442 1442 1442 1442 1442
1469 1468 1467 1466 1466 1465 1464 1464 1463 1463 1462 1462 1461 1461 1460 1460 1459 1458 1458 1457 1456 1455 1455 1454 1453 1452 1451 1450 1449 1448 1446 1445 1444 1443 1443 1442 1442 1441 1440 1440 1439 1439 1439
1466 1465 1464 1463 1462 1462 1461 1460 1460 1459 1459 1458 1458 1457 1457 1457 1456 1455 1455 1454 1453 1452 1452 1451 1451 1450 1449 1448 1447 1445 1444 1443 1442 1442 1441 1440 1440 1439 1439 1438 1437 1437 1437
1462 1462 1461 1460 1459 1458 1458 1457 1456 1456 1455 1455 1454 1454 1454 1454 1453 1453 1452 1451 1451 1450 1450 1449 1448 1448 1447 1446 1445 1444 1442 1441 1440 1440 1439 1438 1437 1437 1436 1436 1436 1435 1435
1459 1459 1458 1457 1456 1456 1455 1454 1453 1453 1452 1451 1451 1451 1450 1450 1450 1450 1449 1448 1448 1448 1447 1446 1446 1445 1445 1444 1443 1442 1441 1439 1439 1438 1437 1436 1435 1435 1434 1434 1434 1434 1433
1457 1456 1455 1454 1454 1453 1452 1451 1450 1450 1449 1449 1449 1448 1448 1448 1447 1447 1447 1446 1446 1445 1445 1444 1444 1443 1443 1442 1441 1440 1439 1438 1437 1436 1435 1434 1433 1433 1432 1432 1432 1432 1432
1454 1453 1452 1452 1451 1450 1449 1449 1448 1447 1447 1446 1446 1446 1445 1445 1445 1444 1444 1444 1444 1443 1443 1442 1442 1441 1440 1440 1439 1438 1437 1436 1435 1434 1433 1432 1431 1430 1430 1430 1430 1430 1430
1451 1450 1450 1449 1448 1447 1447 1446 1445 1445 1444 1444 1443 1443 1443 1442 1442 1442 1442 1441 1441 1441 1441 1440 1440 1439 1438 1437 1437 1436 1436 1435 1434 1432 1431 1430 1429 1429 1428 1429 1429 1429 1428